Vorticity
6 12 0 11 28 0 -2 3 -8 1 8 -10 2 2 4 3 5 6 3 5 6 4 3 4 3 3 3 0 4 6 6 6 7 7 7 5 4 4 4 4 3 4 3 5 4 5 5 3 1
6 -6 3 8 20 15 4 7 4 9 -3 -3 2 5 4 3 2 -0 7 5 6 5 3 5 5 3 2 5 7 6 7 7 7 7 6 5 6 6 5 3 4 3 4 4 3 4 5 5 5
3 3 1 -9 21 13 -0 8 21 6 11 4 7 2 3 3 4 2 3 2 4 4 5 4 4 5 3 5 7 6 7 8 7 7 5 5 4 6 6 6 6 5 4 5 4 3 3 5 6
4 3 2 -9 15 19 5 19 10 17 6 -0 6 7 5 4 4 2 -1 5 5 5 3 4 5 4 3 5 7 6 8 8 7 7 6 6 4 5 4 5 7 6 7 4 5 4 4 3 4
8 5 0 -5 -2 0 9 5 18 12 13 8 0 5 4 5 4 2 3 6 2 0 4 3 4 5 4 1 6 6 8 8 8 8 7 7 5 4 5 5 3 3 4 5 6 5 5 5 4
8 8 -2 -4 5 2 -1 7 1 10 15 11 6 5 3 3 5 5 3 3 5 5 3 4 4 5 4 5 4 6 8 6 7 9 7 6 5 4 5 4 3 4 4 4 5 4 4 5 6
5 9 2 2 5 2 4 3 4 6 9 12 12 6 5 6 4 4 4 5 4 5 2 4 5 6 6 4 5 5 7 7 7 7 9 7 6 5 7 7 6 6 6 5 6 5 4 4 4
9 6 5 3 4 5 2 3 3 4 7 11 8 6 7 7 9 8 3 5 5 1 5 7 3 6 8 6 6 7 7 6 7 6 9 8 9 8 7 5 6 3 4 4 5 6 6 5 5
15 9 6 5 3 5 4 3 2 4 5 5 5 6 7 6 10 6 8 5 4 2 4 4 7 3 6 7 6 8 5 6 8 9 8 9 6 3 7 6 5 5 7 7 7 6 5 5 5
33 21 11 5 4 2 6 4 2 3 4 4 4 4 7 9 6 10 6 6 10 5 1 5 4 6 6 5 7 7 7 6 8 10 9 7 6 3 2 9 7 9 6 7 6 5 5 3 3
29 27 23 10 7 2 5 5 2 3 4 2 4 4 2 4 8 5 9 10 5 3 -2 2 4 10 7 6 7 7 8 8 8 10 8 6 5 5 5 5 10 8 6 6 6 6 8 7 8
25 30 23 17 9 7 4 4 5 3 4 4 2 5 4 5 5 2 8 6 10 9 0 5 3 6 8 8 7 7 6 7 10 8 6 7 7 7 5 8 2 9 8 6 8 7 9 9 8
20 32 23 14 11 8 6 4 3 4 4 5 5 4 2 6 3 3 1 4 7 4 3 4 5 3 5 6 6 7 7 7 8 6 7 6 6 7 7 5 4 -1 6 7 6 7 7 3 2
30 33 40 16 18 11 6 9 2 5 1 4 4 4 6 1 11 0 9 10 7 3 5 10 9 7 5 4 5 6 7 7 7 6 6 5 5 6 6 4 6 5 1 3 2 -0 3 4 6
29 29 21 45 8 34 23 10 10 5 4 6 5 4 3 4 6 0 2 -10 10 5 0 1 8 7 8 5 4 5 7 8 7 6 6 6 6 5 5 6 7 6 5 3 1 5 7 7 5
25 28 31 22 39 6 37 6 33 13 8 3 9 3 5 5 8 4 13 4 13 9 2 4 5 4 7 6 5 5 7 8 6 5 5 8 7 8 7 7 7 8 8 1 4 7 6 4 5
24 30 28 17 35 29 7 10 16 45 29 7 4 4 6 4 9 -6 -8 7 -9 8 -4 5 6 3 6 6 5 5 7 6 6 4 5 8 8 12 7 9 8 6 4 10 9 11 12 3 8
19 35 29 20 30 48 30 13 1 30 51 19 20 4 4 8 4 3 -11 -7 12 7 -3 15 3 8 5 5 6 4 5 7 6 6 7 7 7 7 5 9 2 3 7 6 9 4 9 5 8
18 23 18 21 24 24 36 22 14 -2 -28 33 12 28 1 7 3 2 8 7 -7 23 4 -3 6 8 5 5 3 5 5 6 5 6 2 12 10 9 4 0 -0 11 8 14 6 3 10 7 7
23 12 26 19 26 26 24 41 17 21 25 28 11 7 20 5 13 25 11 7 2 17 15 -1 2 10 5 5 6 6 3 5 3 6 9 11 7 8 9 7 3 7 6 3 9 5 7 4 7
33 17 16 20 44 45 36 33 26 37 -47 18 12 -17 37 0 1 -3 12 2 -7 18 3 12 5 7 9 8 6 5 4 4 5 6 3 0 8 8 8 9 7 11 1 5 5 4 5 4 5
35 32 30 15 2 15 45 19 17 32 34 -28 11 -33 26 27 9 3 -19 -3 -10 0 12 5 8 8 7 6 5 5 4 4 5 5 4 4 9 10 9 4 8 8 5 3 3 3 4 5 4
30 23 11 4 10 6 24 36 -1 27 20 32 33 6 -19 39 17 9 10 13 10 -13 -1 12 -2 10 10 5 6 4 3 4 3 5 2 6 8 5 9 4 5 6 5 5 3 6 5 4 5
6 6 9 18 3 27 25 15 33 31 35 20 51 -9 -45 -36 -4 6 4 9 12 13 -4 -5 15 10 8 9 5 5 4 4 4 4 5 2 3 7 7 10 8 6 6 4 6 6 3 4 4
4 9 8 1 8 5 6 13 15 33 24 15 26 13 -14 -30 38 2 14 29 10 7 8 1 4 0 11 6 9 7 4 6 4 3 7 -4 7 5 7 7 10 8 6 5 4 3 2 6 4
-7 -7 9 25 -2 12 3 5 18 26 23 37 -11 2 42 -1 -42 31 -27 -9 35 27 10 7 -0 14 4 5 2 9 8 5 7 2 -7 14 13 3 3 4 6 10 7 5 4 6 6 5 5
14 29 3 7 1 13 14 37 6 28 20 23 33 5 22 11 25 19 25 22 -9 17 27 12 9 -2 18 3 3 7 11 5 7 7 -3 0 11 9 8 4 5 9 9 9 7 4 5 6 6
20 17 23 -2 12 1 5 -21 27 14 16 27 21 19 7 15 -18 -8 -8 -8 -12 -10 3 38 19 11 2 10 4 7 10 8 4 1 12 -10 -4 18 3 13 3 5 4 7 7 8 5 4 4
19 26 26 16 5 12 -0 5 -2 20 19 23 22 24 25 13 8 17 -7 4 14 -6 15 19 13 27 13 10 2 1 9 11 7 2 2 4 0 -37 49 8 7 3 3 7 8 11 7 6 4
14 25 23 15 12 21 30 10 -9 14 7 13 16 23 28 37 8 5 12 18 1 -5 -13 -7 4 16 21 18 12 -1 -3 7 14 6 6 7 1 -12 -11 18 5 3 4 3 4 3 3 13 6
Height
5761 5764 5767 5766 5770 5769 5774 5783 5794 5797 5801 5805 5806 5805 5810 5813 5815 5824 5828 5831 5833 5834 5835 5837 5839 5841 5843 5845 5847 5849 5851 5853 5855 5858 5861 5864 5865 5868 5870 5871 5873 5875 5877 5879 5880 5882 5883 5884 5884
5758 5760 5763 5761 5761 5764 5772 5787 5790 5795 5798 5798 5800 5801 5803 5808 5810 5819 5825 5829 5830 5831 5832 5834 5837 5839 5841 5843 5845 5847 5849 5851 5854 5856 5859 5862 5865 5867 5869 5870 5872 5874 5876 5878 5880 5881 5881 5883 5884
5750 5751 5754 5753 5753 5755 5769 5782 5787 5788 5788 5790 5793 5794 5797 5804 5807 5812 5820 5824 5828 5828 5829 5832 5834 5836 5839 5841 5842 5845 5847 5849 5851 5854 5856 5859 5862 5866 5868 5869 5871 5873 5875 5877 5879 5880 5881 5883 5884
5742 5742 5744 5743 5747 5757 5763 5772 5774 5778 5781 5783 5785 5787 5789 5799 5804 5808 5815 5819 5823 5824 5825 5828 5831 5834 5836 5838 5840 5842 5845 5847 5849 5851 5854 5857 5860 5863 5866 5868 5870 5872 5875 5876 5877 5878 5879 5882 5883
5730 5731 5730 5734 5740 5746 5755 5763 5766 5769 5773 5777 5778 5781 5784 5792 5800 5803 5809 5815 5817 5819 5820 5823 5827 5830 5832 5835 5837 5839 5842 5844 5847 5849 5851 5854 5858 5860 5863 5867 5869 5871 5873 5874 5876 5877 5879 5881 5883
5714 5715 5716 5723 5729 5734 5743 5753 5757 5762 5764 5766 5768 5772 5777 5785 5794 5800 5804 5809 5812 5814 5816 5819 5823 5827 5829 5831 5834 5836 5839 5842 5845 5847 5849 5852 5855 5858 5860 5864 5867 5869 5871 5873 5875 5876 5877 5879 5881
5697 5697 5703 5709 5716 5722 5731 5740 5747 5752 5756 5759 5760 5763 5769 5778 5788 5793 5797 5799 5805 5806 5810 5815 5818 5822 5825 5828 5831 5833 5836 5839 5842 5845 5847 5851 5853 5856 5858 5861 5864 5866 5868 5871 5873 5874 5876 5878 5879
5679 5678 5682 5693 5701 5707 5717 5727 5734 5741 5746 5748 5751 5755 5761 5770 5782 5787 5790 5792 5795 5799 5803 5809 5813 5818 5822 5824 5827 5829 5831 5835 5839 5842 5845 5849 5851 5853 5855 5858 5861 5864 5866 5868 5870 5872 5873 5875 5876
5650 5654 5663 5674 5682 5691 5698 5711 5716 5728 5734 5738 5742 5746 5752 5759 5772 5776 5781 5786 5788 5792 5797 5803 5809 5813 5817 5819 5822 5824 5827 5831 5835 5839 5842 5846 5848 5850 5852 5855 5859 5862 5864 5866 5867 5869 5871 5872 5873
5614 5624 5638 5647 5652 5665 5678 5693 5702 5714 5724 5731 5733 5738 5743 5754 5762 5767 5771 5779 5784 5788 5793 5798 5803 5808 5811 5815 5817 5820 5823 5827 5832 5835 5838 5842 5844 5846 5849 5854 5857 5859 5861 5862 5864 5866 5868 5869 5870
5583 5597 5609 5617 5627 5637 5660 5673 5683 5699 5709 5717 5723 5727 5734 5745 5755 5761 5766 5773 5779 5782 5785 5791 5797 5802 5805 5810 5812 5815 5819 5823 5827 5831 5834 5837 5840 5843 5847 5852 5854 5856 5856 5859 5862 5864 5865 5866 5868
5558 5570 5578 5589 5599 5614 5629 5650 5663 5682 5697 5706 5710 5714 5722 5731 5742 5752 5759 5765 5772 5778 5781 5784 5789 5794 5798 5803 5806 5810 5814 5818 5822 5826 5829 5833 5836 5840 5843 5848 5850 5852 5854 5856 5858 5860 5862 5864 5865
5538 5546 5549 5555 5570 5586 5603 5623 5641 5667 5683 5694 5698 5705 5712 5722 5733 5741 5750 5759 5763 5769 5772 5778 5783 5788 5792 5795 5799 5804 5809 5812 5816 5819 5823 5828 5832 5836 5841 5843 5846 5849 5851 5853 5855 5857 5860 5861 5862
5522 5529 5532 5533 5542 5560 5580 5595 5619 5645 5660 5677 5686 5693 5701 5709 5720 5733 5742 5750 5754 5759 5764 5770 5775 5780 5785 5788 5792 5797 5803 5807 5810 5814 5818 5822 5827 5832 5836 5839 5842 5846 5849 5850 5853 5854 5856 5858 5859
5508 5514 5517 5521 5526 5541 5556 5575 5593 5619 5638 5657 5671 5680 5691 5698 5708 5721 5731 5742 5747 5755 5759 5764 5769 5774 5780 5783 5786 5793 5798 5801 5805 5810 5813 5818 5822 5828 5832 5834 5837 5841 5845 5847 5849 5850 5852 5854 5856
5501 5502 5504 5511 5515 5530 5540 5562 5572 5598 5618 5639 5654 5664 5678 5685 5696 5709 5720 5730 5736 5744 5747 5755 5759 5765 5773 5778 5781 5788 5791 5795 5799 5804 5807 5812 5817 5823 5827 5829 5832 5836 5840 5842 5845 5846 5849 5851 5852
5495 5493 5495 5500 5500 5515 5532 5550 5565 5587 5602 5620 5638 5648 5657 5669 5681 5695 5707 5717 5725 5735 5740 5747 5752 5757 5765 5773 5778 5783 5785 5788 5793 5797 5802 5807 5812 5818 5821 5825 5828 5832 5835 5837 5840 5842 5845 5847 5849
5492 5490 5489 5491 5496 5503 5521 5539 5559 5578 5592 5601 5616 5628 5640 5653 5668 5681 5694 5705 5713 5723 5731 5737 5745 5750 5757 5765 5771 5775 5777 5782 5787 5792 5797 5803 5807 5813 5816 5820 5823 5827 5829 5832 5835 5838 5841 5843 5845
5489 5489 5489 5490 5493 5499 5512 5534 5552 5567 5575 5590 5605 5620 5629 5642 5654 5668 5681 5692 5701 5711 5720 5728 5734 5740 5747 5755 5762 5770 5773 5777 5782 5788 5793 5796 5801 5807 5812 5814 5818 5821 5824 5826 5830 5833 5836 5839 5841
5487 5488 5489 5492 5493 5499 5511 5529 5536 5560 5570 5584 5600 5613 5620 5632 5645 5657 5667 5681 5690 5699 5708 5716 5726 5732 5739 5747 5756 5764 5770 5774 5777 5780 5784 5788 5795 5800 5805 5809 5812 5816 5819 5822 5825 5828 5831 5834 5837
5488 5488 5491 5496 5498 5504 5512 5522 5530 5549 5561 5574 5591 5605 5614 5624 5635 5650 5658 5669 5681 5690 5699 5709 5716 5723 5732 5739 5745 5753 5758 5762 5765 5771 5777 5783 5789 5793 5797 5801 5805 5808 5812 5816 5819 5822 5825 5828 5830
5492 5492 5496 5501 5505 5511 5514 5521 5531 5544 5562 5573 5584 5596 5607 5613 5625 5638 5651 5660 5673 5681 5691 5701 5707 5714 5721 5729 5737 5743 5749 5756 5763 5771 5774 5776 5781 5786 5790 5794 5798 5802 5806 5809 5813 5816 5820 5822 5825
5505 5504 5507 5511 5513 5516 5520 5526 5533 5545 5553 5571 5582 5595 5600 5607 5615 5628 5640 5651 5663 5673 5682 5690 5699 5705 5713 5719 5727 5734 5740 5747 5755 5760 5764 5769 5773 5777 5783 5786 5790 5795 5799 5802 5807 5810 5814 5816 5819
5520 5519 5518 5519 5520 5523 5524 5531 5536 5544 5551 5562 5578 5587 5597 5604 5612 5621 5632 5642 5655 5665 5673 5681 5690 5697 5702 5711 5718 5724 5732 5739 5745 5750 5755 5760 5764 5769 5774 5777 5783 5788 5791 5795 5799 5801 5805 5809 5812
5533 5532 5530 5529 5527 5528 5529 5533 5538 5543 5553 5562 5576 5586 5595 5602 5610 5617 5626 5636 5646 5654 5661 5671 5679 5686 5692 5699 5707 5716 5720 5727 5734 5740 5745 5750 5756 5760 5766 5770 5775 5780 5783 5786 5789 5793 5797 5801 5805
5544 5541 5540 5538 5537 5536 5535 5536 5539 5542 5551 5562 5569 5579 5590 5597 5605 5613 5619 5626 5636 5643 5650 5658 5666 5673 5680 5686 5693 5702 5710 5715 5722 5727 5735 5740 5747 5752 5756 5759 5764 5769 5773 5777 5780 5783 5786 5790 5794
5549 5547 5546 5545 5544 5544 5543 5543 5543 5544 5550 5557 5566 5572 5578 5591 5602 5607 5613 5619 5626 5632 5638 5646 5654 5662 5668 5675 5682 5688 5695 5703 5710 5715 5723 5728 5737 5742 5745 5749 5753 5757 5762 5765 5768 5772 5776 5779 5784
5557 5553 5551 5550 5550 5549 5550 5550 5549 5549 5551 5556 5561 5568 5573 5579 5587 5598 5604 5611 5616 5624 5628 5635 5642 5649 5656 5662 5669 5676 5684 5690 5696 5703 5708 5716 5720 5729 5734 5738 5742 5747 5751 5754 5757 5761 5764 5768 5772
5564 5559 5557 5557 5556 5555 5554 5555 5555 5555 5555 5556 5560 5564 5569 5573 5578 5585 5594 5601 5607 5613 5621 5625 5632 5637 5643 5650 5657 5663 5669 5676 5683 5689 5696 5700 5708 5715 5717 5723 5728 5734 5738 5742 5745 5748 5752 5756 5760
5570 5565 5561 5560 5559 5556 5554 5556 5555 5556 5557 5558 5559 5561 5563 5567 5571 5574 5580 5587 5594 5602 5610 5616 5621 5626 5632 5638 5643 5650 5657 5663 5669 5677 5684 5690 5696 5700 5708 5710 5715 5720 5724 5728 5733 5737 5739 5743 5747